[[{"header":{"parameterUnit":"m.s-1","parameterCategory":1,"la1":30.2991,"la2":30.254,"lo1":-89.0895,"lo2":-89.0444,"dy":0.0017,"dx":0.0017,"nx":28,"ny":28,"refTime":"2024-07-27T09:00:00:Z","depth":0,"parameterNumber":2,"parameterNumberName":"U-component_of_WINDS"},"data":[0,0,0,0,0,0,0,0,0,0,0,0,0,0,0,0,0,0,0,0,0,0,0,0,0,0,0,0,0,0,0,0,0,0,0,0,0,0,0,0,0,0,0,0,0,0,0,0,0,0,0,0,0,0,0,0,0,0,-0.358,-0.358,0,-0.361,-0.361,-0.3611,-0.364,-0.364,-0.3641,-0.3641,-0.3669,-0.367,-0.367,0,0,0,0,0,0,0,0,0,0,0,0,0,-0.3545,-0.3546,-0.358,-0.358,-0.3581,-0.361,-0.361,-0.3611,-0.364,-0.364,-0.3641,-0.3641,-0.3669,-0.367,-0.367,0,0,0,0,0,0,0,0,0,0,0,0,0,-0.3566,-0.3546,-0.358,-0.3599,-0.3601,-0.361,-0.361,-0.3611,-0.364,-0.364,-0.3641,-0.3641,-0.3669,-0.367,-0.367,-0.3662,0,0,-0.3672,-0.3672,0,0,0,0,0,0,0,0,-0.3565,-0.3567,-0.3596,-0.3597,-0.36,-0.3622,-0.3609,-0.3628,-0.364,-0.3625,-0.3641,-0.3642,-0.3653,-0.3655,-0.3659,-0.3664,-0.3665,-0.3672,-0.3672,-0.3673,-0.3673,0,0,0,0,0,0,0,-0.3563,-0.3566,-0.3592,-0.3596,-0.3598,-0.3605,-0.3609,-0.3612,-0.3635,-0.3626,-0.3628,-0.3632,-0.3654,-0.3658,-0.366,-0.3665,-0.3672,-0.3673,-0.3673,-0.3673,-0.3664,-0.3664,0,0,0,0,0,0,-0.3559,-0.3565,-0.3591,-0.3593,-0.3583,-0.3605,-0.3609,-0.3614,-0.3635,-0.3639,-0.3631,-0.3633,-0.3657,-0.3659,-0.3661,-0.3653,-0.3673,-0.3673,-0.3674,-0.3665,-0.3664,-0.3664,0,0,0,0,0,0,-0.3558,-0.3561,-0.359,-0.3579,-0.3583,-0.3605,-0.361,-0.3614,-0.3619,-0.3639,-0.3643,-0.3632,-0.3658,-0.366,-0.3662,-0.3655,-0.3673,-0.3674,-0.3666,-0.3665,-0.3664,-0.3637,0,0,0,0,0,0,-0.3557,-0.3561,-0.3559,-0.3579,-0.3584,-0.3591,-0.361,-0.3615,-0.362,-0.3623,-0.3641,-0.3644,-0.3658,-0.3661,-0.3662,-0.3656,-0.3674,-0.3667,-0.3665,-0.3664,-0.3639,-0.3636,-0.3633,0,0,0,0,0,-0.3556,-0.3549,-0.3558,-0.3561,-0.3582,-0.359,-0.3593,-0.361,-0.3619,-0.3617,-0.363,-0.3643,-0.3655,-0.3661,-0.3663,-0.3656,-0.3667,-0.3666,-0.3664,-0.364,-0.3636,-0.3633,0,0,0,0,0,0,-0.3527,-0.3552,-0.3563,-0.3563,-0.3574,-0.3595,-0.3593,-0.3605,-0.3614,-0.3616,-0.3636,-0.364,-0.3639,-0.3648,-0.3654,-0.365,-0.3663,-0.3662,-0.3644,-0.364,-0.3637,-0.3635,-0.3675,0,0,0,0,0,-0.352,-0.3526,-0.3548,-0.3546,-0.3551,-0.3571,-0.3575,-0.3587,-0.36,-0.3604,-0.3617,-0.3628,-0.3634,-0.3638,-0.3644,-0.364,-0.3644,-0.3637,-0.3634,-0.3631,-0.363,-0.3628,-0.3625,-0.3659,-0.3659,-0.3659,0,0,-0.3507,-0.3522,-0.3524,-0.354,-0.355,-0.3555,-0.3574,-0.3578,-0.3582,-0.3605,-0.3607,-0.3617,-0.363,-0.3629,-0.3629,-0.3636,-0.3621,-0.3629,-0.3627,-0.3627,-0.3626,-0.3623,-0.362,-0.3659,-0.3659,-0.3659,0,0,-0.3485,-0.3497,-0.3497,-0.3507,-0.3522,-0.3536,-0.3535,-0.3554,-0.3562,-0.3565,-0.3583,-0.3586,-0.3597,-0.3605,-0.3611,-0.3592,-0.3605,-0.3594,-0.3578,-0.3576,-0.3573,-0.357,-0.3563,-0.3561,-0.3593,-0.3593,-0.3593,0,-0.3466,-0.3475,-0.3494,-0.3497,-0.3504,-0.3526,-0.3525,-0.3534,-0.355,-0.3554,-0.3562,-0.3575,-0.3585,-0.3586,-0.3582,-0.3586,-0.3586,-0.3592,-0.3572,-0.357,-0.3568,-0.3561,-0.3559,-0.3591,-0.3591,-0.3591,-0.3592,0,-0.3451,-0.3456,-0.3454,-0.347,-0.3476,-0.3477,-0.3496,-0.35,-0.3512,-0.3524,-0.3526,-0.354,-0.355,-0.3551,-0.3562,-0.3553,-0.3557,-0.3568,-0.3582,-0.3563,-0.3557,-0.3555,-0.3589,-0.359,-0.359,-0.359,0,0,-0.3411,-0.3439,-0.3437,-0.3445,-0.3464,-0.3468,-0.347,-0.348,-0.3483,-0.3493,-0.3495,-0.3503,-0.3513,-0.352,-0.3532,-0.3531,-0.3514,-0.3542,-0.3542,-0.3536,-0.3505,-0.3496,-0.3493,-0.3523,-0.3523,-0.3522,-0.3504,0,-0.3392,-0.3398,-0.3415,-0.3415,-0.342,-0.3441,-0.3442,-0.3453,-0.3465,-0.347,-0.3482,-0.3487,-0.3501,-0.3505,-0.3504,-0.3517,-0.3508,-0.3518,-0.3524,-0.3524,-0.352,-0.349,-0.3481,-0.3463,-0.3502,-0.3501,-0.3501,0,-0.3371,-0.3381,-0.3381,-0.34,-0.3403,-0.3404,-0.3415,-0.342,-0.3432,-0.3441,-0.3448,-0.3462,-0.3464,-0.3477,-0.348,-0.3486,-0.349,-0.3496,-0.3496,-0.3497,-0.3511,-0.349,-0.3458,-0.3455,-0.3498,-0.3498,-0.3498,0,-0.3342,-0.3355,-0.3357,-0.3363,-0.3385,-0.3385,-0.3394,-0.3408,-0.3413,-0.3422,-0.3425,-0.3434,-0.3439,-0.3445,-0.3461,-0.3469,-0.3462,-0.3476,-0.3468,-0.3468,-0.3465,-0.3465,-0.3433,-0.3468,-0.3468,-0.3468,-0.3468,0,-0.3319,-0.3318,-0.3345,-0.3346,-0.3345,-0.3365,-0.3364,-0.3375,-0.3387,-0.339,-0.3408,-0.341,-0.3431,-0.3436,-0.3448,-0.3448,-0.345,-0.3456,-0.346,-0.3455,-0.3454,-0.3457,-0.3458,-0.3467,-0.3468,-0.3468,-0.3468,0,-0.3286,-0.3304,-0.3307,-0.3328,-0.3333,-0.3332,-0.3349,-0.3351,-0.3363,-0.3367,-0.3368,-0.3388,-0.3394,-0.341,-0.342,-0.3429,-0.3425,-0.3431,-0.3421,-0.3423,-0.3414,-0.3414,-0.3382,-0.3378,-0.3416,-0.3415,-0.3415,0,-0.327,-0.327,-0.3291,-0.3295,-0.3303,-0.3309,-0.3314,-0.3334,-0.3339,-0.3353,-0.3353,-0.336,-0.3368,-0.3376,-0.339,-0.3398,-0.3404,-0.3393,-0.3406,-0.3401,-0.3404,-0.3404,-0.3403,-0.3389,-0.3389,-0.3389,-0.3388,0,-0.324,-0.3249,-0.3256,-0.3267,-0.3273,-0.3282,-0.3292,-0.3294,-0.3316,-0.332,-0.3327,-0.3333,-0.3343,-0.335,-0.336,-0.3368,-0.3382,-0.3384,-0.3383,-0.3377,-0.3371,-0.3374,-0.3413,-0.3385,-0.3385,-0.3385,-0.3385,-0.3386,-0.3215,-0.3216,-0.3231,-0.3239,-0.3248,-0.3257,-0.326,-0.3273,-0.3279,-0.329,-0.3301,-0.3306,-0.3319,-0.3333,-0.3341,-0.3345,-0.3352,-0.3349,-0.3349,-0.3348,-0.3345,-0.3371,-0.3347,-0.3347,-0.3347,-0.3347,-0.3347,0,-0.3186,-0.3196,-0.3203,-0.3217,-0.3223,-0.3236,-0.3247,-0.3251,-0.3256,-0.3267,-0.3274,-0.3281,-0.3288,-0.3303,-0.3311,-0.3312,-0.3318,-0.3313,-0.3313,-0.3315,-0.3339,-0.3339,-0.3308,-0.3308,-0.3308,-0.3308,-0.3308,-0.3308,-0.3171,-0.3173,-0.3184,-0.3191,-0.3201,-0.3208,-0.3213,-0.3221,-0.323,-0.3238,-0.3244,-0.3254,-0.3266,-0.3275,-0.3282,-0.3286,-0.3288,-0.3281,-0.3287,-0.3309,-0.3313,-0.3316,-0.3317,-0.3281,-0.3281,-0.3262,-0.3262,-0.3262]},{"header":{"parameterUnit":"m.s-1","parameterCategory":1,"la1":30.2991,"la2":30.254,"lo1":-89.0895,"lo2":-89.0444,"dy":0.0017,"dx":0.0017,"nx":28,"ny":28,"refTime":"2024-07-27T09:00:00:Z","depth":0,"parameterNumber":3,"parameterNumberName":"V-component_of_WINDS"},"data":[0,0,0,0,0,0,0,0,0,0,0,0,0,0,0,0,0,0,0,0,0,0,0,0,0,0,0,0,0,0,0,0,0,0,0,0,0,0,0,0,0,0,0,0,0,0,0,0,0,0,0,0,0,0,0,0,0,0,1.0813,1.0812,0,1.0658,1.0656,1.0655,1.0554,1.0553,1.0553,1.0552,1.0387,1.0384,1.038,0,0,0,0,0,0,0,0,0,0,0,0,0,1.102,1.1017,1.0814,1.0812,1.081,1.0658,1.0656,1.0654,1.0554,1.0553,1.0552,1.0552,1.0389,1.0384,1.038,0,0,0,0,0,0,0,0,0,0,0,0,0,1.0904,1.1016,1.0814,1.0742,1.0733,1.0659,1.0656,1.0653,1.0554,1.0553,1.0552,1.0551,1.039,1.0385,1.0379,1.0362,0,0,1.0362,1.0359,0,0,0,0,0,0,0,0,1.0911,1.0897,1.0754,1.0746,1.0737,1.0624,1.0669,1.0556,1.0554,1.0622,1.0552,1.0551,1.0467,1.0455,1.0427,1.0355,1.0348,1.0361,1.0358,1.0355,1.0354,0,0,0,0,0,0,0,1.0919,1.0903,1.0752,1.0752,1.0742,1.0716,1.0698,1.0647,1.0551,1.0616,1.0608,1.0592,1.0462,1.0433,1.0423,1.0345,1.0361,1.0356,1.0353,1.035,1.0253,1.0254,0,0,0,0,0,0,1.0939,1.091,1.0757,1.0747,1.0824,1.0713,1.0693,1.0661,1.0552,1.0534,1.0593,1.0588,1.0443,1.043,1.0417,1.039,1.0355,1.035,1.0347,1.0252,1.0253,1.0254,0,0,0,0,0,0,1.0944,1.0926,1.0763,1.0826,1.0804,1.071,1.0675,1.0659,1.063,1.0534,1.0516,1.0581,1.0442,1.0425,1.0377,1.0383,1.0347,1.0342,1.0251,1.0252,1.0253,1.0338,0,0,0,0,0,0,1.095,1.0929,1.0922,1.0827,1.0801,1.0727,1.0676,1.0657,1.0621,1.0613,1.0518,1.0502,1.044,1.0386,1.0372,1.0375,1.0338,1.025,1.0251,1.0253,1.0334,1.0342,1.0349,0,0,0,0,0,1.0958,1.095,1.0922,1.0904,1.0791,1.0728,1.0713,1.0643,1.0622,1.0614,1.0553,1.0505,1.0386,1.0382,1.0365,1.0366,1.0249,1.0251,1.0253,1.0331,1.034,1.0348,0,0,0,0,0,0,1.1045,1.0936,1.0904,1.0865,1.0807,1.0711,1.0698,1.0655,1.06,1.0595,1.051,1.0489,1.0451,1.0404,1.0402,1.0346,1.0312,1.031,1.0377,1.0385,1.0393,1.0404,1.0333,0,0,0,0,0,1.106,1.102,1.0927,1.0902,1.0874,1.0792,1.0762,1.0715,1.065,1.0624,1.0559,1.0497,1.0445,1.0413,1.036,1.0328,1.0306,1.032,1.0328,1.0334,1.0333,1.0314,1.0319,1.026,1.026,1.026,0,0,1.109,1.1026,1.1005,1.0918,1.0867,1.0826,1.0772,1.073,1.0699,1.0617,1.0569,1.052,1.0445,1.0405,1.0385,1.0365,1.0345,1.0337,1.0342,1.0337,1.0316,1.0322,1.0327,1.0261,1.0261,1.0261,0,0,1.1123,1.1071,1.1045,1.0997,1.0922,1.0868,1.0862,1.0773,1.0738,1.0689,1.0628,1.0589,1.0502,1.0452,1.0415,1.0434,1.0388,1.0419,1.0456,1.0438,1.0443,1.0446,1.0453,1.0457,1.0419,1.0419,1.0419,0,1.1169,1.1107,1.1037,1.1,1.0964,1.0891,1.0864,1.082,1.0731,1.0707,1.0687,1.0579,1.0523,1.0471,1.0477,1.0449,1.0439,1.0428,1.0448,1.0451,1.0453,1.0459,1.0462,1.0424,1.0423,1.0423,1.0422,0,1.1167,1.1125,1.1113,1.1032,1.0995,1.0963,1.0888,1.0858,1.0815,1.0763,1.0715,1.0647,1.058,1.0564,1.052,1.0507,1.0497,1.0464,1.0428,1.0464,1.0468,1.047,1.043,1.0428,1.0427,1.0426,0,0,1.1247,1.1131,1.1128,1.1091,1.1005,1.097,1.0936,1.0873,1.085,1.0792,1.076,1.0691,1.066,1.0619,1.0569,1.0554,1.0574,1.0522,1.0519,1.0533,1.0555,1.058,1.0584,1.0544,1.0544,1.0544,1.0562,0,1.1267,1.1203,1.1141,1.1099,1.106,1.0992,1.0962,1.0906,1.0858,1.0817,1.0762,1.0714,1.0678,1.0653,1.0635,1.0575,1.0577,1.0573,1.0513,1.0511,1.0532,1.0586,1.0611,1.063,1.0563,1.0563,1.0563,0,1.128,1.1229,1.1184,1.1104,1.1085,1.106,1.0998,1.096,1.0895,1.0861,1.0818,1.0766,1.0726,1.0697,1.0641,1.0641,1.0613,1.058,1.0579,1.0569,1.0538,1.0576,1.0635,1.0638,1.0565,1.0564,1.0564,0,1.1343,1.1262,1.1225,1.1196,1.1102,1.1086,1.1046,1.098,1.0947,1.0894,1.0871,1.0813,1.0781,1.0737,1.0671,1.0656,1.0622,1.0587,1.0592,1.0594,1.0586,1.0587,1.064,1.0571,1.0571,1.057,1.057,0,1.1371,1.1345,1.1252,1.1229,1.12,1.113,1.1102,1.1055,1.0999,1.0965,1.0903,1.0873,1.0789,1.0748,1.0697,1.0658,1.0644,1.0615,1.0601,1.062,1.0623,1.0598,1.0595,1.0571,1.0571,1.0571,1.0571,0,1.1434,1.1371,1.1326,1.1243,1.1221,1.1203,1.1131,1.1106,1.1056,1.1014,1.1,1.0921,1.0871,1.0802,1.0729,1.0695,1.0663,1.0642,1.0686,1.0677,1.0686,1.0686,1.0723,1.0724,1.0656,1.0657,1.0658,0,1.1455,1.1434,1.135,1.1325,1.1287,1.1246,1.1214,1.1145,1.1113,1.104,1.1024,1.0969,1.0922,1.0844,1.0779,1.0724,1.0701,1.0718,1.0691,1.0711,1.07,1.0702,1.0699,1.0723,1.0725,1.0725,1.0726,0,1.1498,1.1469,1.1425,1.1372,1.1335,1.1289,1.1239,1.1221,1.1142,1.1109,1.1058,1.1022,1.095,1.0897,1.0834,1.0791,1.0745,1.0736,1.0734,1.0751,1.0777,1.0763,1.0702,1.0734,1.0733,1.0733,1.0732,1.0732,1.154,1.152,1.1458,1.1412,1.1369,1.1325,1.1298,1.1247,1.1204,1.1141,1.1103,1.1054,1.0992,1.0903,1.0863,1.0823,1.0805,1.0802,1.0801,1.0801,1.0807,1.0786,1.0812,1.0811,1.0811,1.0811,1.0811,0,1.158,1.1539,1.1497,1.1432,1.1396,1.136,1.1304,1.1276,1.1234,1.1181,1.1138,1.108,1.1029,1.0962,1.0906,1.0887,1.0865,1.0875,1.0874,1.0866,1.0827,1.0834,1.0894,1.0894,1.0894,1.0894,1.0894,1.0894,1.1597,1.1561,1.1525,1.1467,1.1425,1.1379,1.135,1.131,1.1267,1.1207,1.1165,1.1123,1.1065,1.1005,1.0956,1.0938,1.092,1.0936,1.0911,1.0876,1.0868,1.0861,1.0867,1.0933,1.0933,1.0952,1.0953,1.0953]}]]